Location: Beaurecueil
(43.5122°N, 5.5450°E)
Time: 14:30:20
(UTC+00:00)

Lacrosse 4 Rocket - Pass Details

Date: 18 September 2020
Orbit: 543 x 616 km, 68.0° (Epoch: 31 October)

Event Time Altitude Azimuth Distance (km) Brightness Sun altitude
Rises 20:59:33 0° 341° (NNW) 2,715 5.7 -33.6°
Reaches altitude 10° 21:02:07 10° 356° (N) 1,823 4.4 -34.0°
Enters shadow 21:02:09 10° 357° (N) 1,816 4.4 -34.0°
